This demonstration page uses our WeatherBlox Daily Observations layout. Learn more.

Left ArrowRight Arrow

40.92501, -98.34201

Hourly Observations for August 18, 2020

Temp ( °F °C ) Dew Point ( °F °C ) Humidity (%) Winds ( mph kmh ) Pressure ( in mb ) Visibility ( mi km ) Precip ( " mm )
12:53 am 00:53 Clear 67 19.4 63 17.2 87 87 WSW 3 6 30.16 1021 10 16 0.00 0.00
1:53 am 01:53 Clear 65 18.3 61 16.1 87 87 Calm 30.15 1021 10 16 0.00 0.00
2:53 am 02:53 Clear 65 18.3 61 16.1 87 87 Calm 30.15 1021 10 16 0.00 0.00
3:42 am 03:42 Clear with Mist and Fog 62 16.7 59 15 90 90 W 7 11 30.13 1020 2 2 0.00 0.00
3:51 am 03:51 Clear with Mist and Fog 63 17 61 16 94 94 W 5 7 30.14 1021 3 5 0.00 0.00
3:53 am 03:53 Clear with Mist and Fog 62 16.7 60 15.6 93 93 W 5 7 30.14 1021 5 8 0.00 0.00
4:53 am 04:53 Clear with Mist and Fog 62 16.7 59 15 90 90 Calm 30.13 1020 6 10 0.00 0.00
5:53 am 05:53 Clear 63 17.2 58 14.4 84 84 WSW 6 9 30.13 1020 10 16 0.00 0.00
6:53 am 06:53 Sunny 63 17.2 58 14.4 84 84 W 3 6 30.14 1021 10 16 0.00 0.00
7:53 am 07:53 Sunny 65 18.3 60 15.6 84 84 Calm 30.14 1021 10 16 0.00 0.00
8:53 am 08:53 Mostly Sunny 70 21.1 62 16.7 76 76 NW 7 11 30.18 1022 10 16 0.00 0.00
9:53 am 09:53 Mostly Cloudy 69 20.6 63 17.2 81 81 ESE 6 9 30.17 1022 10 16 0.00 0.00
10:53 am 10:53 Sunny 72 22.2 64 17.8 76 76 SSE 7 11 30.15 1021 10 16 0.00 0.00
11:53 am 11:53 Cloudy 72 22.2 65 18.3 79 79 ENE 6 9 30.18 1022 10 16 0.00 0.00
12:53 pm 12:53 Sunny 76 24.4 65 18.3 69 69 S 7 11 30.13 1020 10 16 0.00 0.00
1:53 pm 13:53 Sunny 80 26.7 61 16.1 52 52 S 12 19 30.10 1019 10 16 0.00 0.00
2:53 pm 14:53 Sunny 82 27.8 60 15.6 47 47 SSW 10 17 30.08 1019 10 16 0.00 0.00
3:53 pm 15:53 Sunny 82 27.8 62 16.7 51 51 SE 13 20 30.07 1018 10 16 0.00 0.00
4:53 pm 16:53 Sunny 82 27.8 63 17.2 53 53 SE 10 17 30.06 1018 10 16 0.00 0.00
5:53 pm 17:53 Sunny 81 27.2 64 17.8 57 57 ESE 12 19 30.06 1018 10 16 0.00 0.00
6:53 pm 18:53 Sunny 79 26.1 62 16.7 56 56 SSE 9 15 30.05 1018 10 16 0.00 0.00
7:53 pm 19:53 Sunny 76 24.4 66 18.9 72 72 ESE 8 13 30.05 1018 10 16 0.00 0.00
8:53 pm 20:53 Clear 72 22.2 64 17.8 76 76 SE 7 11 30.05 1018 10 16 0.00 0.00
9:53 pm 21:53 Clear 70 21.1 64 17.8 82 82 ESE 6 9 30.07 1018 10 16 0.00 0.00
10:53 pm 22:53 Clear 70 21.1 64 17.8 82 82 SSE 9 15 30.06 1018 10 16 0.00 0.00
11:53 pm 23:53 Clear 69 20.6 64 17.8 84 84 SSE 9 15 30.07 1018 10 16 0.00 0.00

Powered by AerisWeather